Flag for U.S.A. Weather past 2 weeks in Wilmington, North Carolina, U.S.A.

Now
83 °F

Passing clouds.


Feels Like: 86 °F
Forecast: 67 / 83 °F
Wind: 13 mph from Northeast

Location: New Hanover International Airport

Current Time: Aug 29, 2015 at 1:17:01 PM

Latest Report: Aug 29, 2015 at 11:53 AM


Visibility: 10 mi

Pressure: 30.18 "Hg

Humidity: 61%

Dew point: 68 °F

Location of WilmingtonLocation

Historic Weather in Wilmington — Graph

°F

Wilmington temperature yesterday

Maximum temperature yesterday: 86 °F (at 1:53 PM)
Minimum temperature yesterday: 68 °F (at 5:53 AM)
Average temperature yesterday: 76 °F

Past Weeks' High & Low Weather Summary

 TemperatureHumidityPressure
High91 °F (Aug 20, 3:53 PM)97% (Aug 16, 6:53 AM)30.19 "Hg (Aug 16, 6:53 AM)
Low66 °F (Aug 15, 6:53 AM)36% (Aug 23, 4:53 PM)29.86 "Hg (Aug 25, 5:53 PM)
Average78 °F78%30.02 "Hg
* Reported Aug 14 11:53 AM — Aug 29 11:53 AM, Wilmington, Weather by CustomWeather, © 2015

Note: Actual official high and low records may vary slightly from our data, if they occured in-between our weather recording intervals... More about our weather records

Advertising

Wilmington weather history for previous 24 hours

 ConditionsComfort  
Time TempWeatherWind HumidityBarometerVisibility
11:53 AM
Sat, Aug 29
83 °FPassing clouds.13 mph61%30.18 "Hg10 mi
10:53 AM81 °FScattered clouds.10 mph65%30.19 "Hg10 mi
9:53 AM77 °FSunny.12 mph77%30.17 "Hg10 mi
8:53 AM74 °FSunny.9 mph79%30.17 "Hg10 mi
7:53 AM68 °FSunny.7 mph90%30.17 "Hg10 mi
6:53 AM66 °FClear.5 mph93%30.15 "Hg9 mi
5:53 AM67 °FClear.5 mph90%30.13 "Hg10 mi
4:53 AM67 °FPassing clouds.5 mph93%30.12 "Hg10 mi
2:53 AM68 °FClear.7 mph90%30.14 "Hg10 mi
1:53 AM69 °FClear.6 mph90%30.15 "Hg10 mi
12:53 AM70 °FClear.5 mph87%30.16 "Hg10 mi
11:53 PM
Fri, Aug 28
71 °FClear.7 mph84%30.16 "Hg10 mi
10:53 PM72 °FClear.9 mph81%30.15 "Hg10 mi
9:53 PM73 °FClear.7 mph79%30.16 "Hg10 mi
8:53 PM75 °FPassing clouds.9 mph74%30.14 "Hg10 mi
7:53 PM77 °FPartly sunny.6 mph74%30.12 "Hg10 mi
6:53 PM79 °FSunny.6 mph67%30.11 "Hg10 mi
5:53 PM81 °FCloudy.6 mph62%30.10 "Hg10 mi
4:53 PM84 °FScattered clouds.8 mph55%30.10 "Hg10 mi
3:53 PM83 °FScattered clouds.8 mph55%30.11 "Hg10 mi
2:53 PM86 °FPassing clouds.12 mph46%30.13 "Hg10 mi
1:53 PM86 °FScattered clouds.13 mph49%30.14 "Hg10 mi
Weather by CustomWeather, © 2015

See weather overviewHow to use our weather pages